Regional Weather Roundup
Issued by NWS Wakefield, VA

Home | Current Version | Previous Version | Text Only | Print | Product List | Glossary Off
Versions: 1 2 3 4 5 6 7 8 9 10 11 12 13 14 15 16 17 18 19 20 21 22 23 24 25 26 27 28

000
ASUS41 KAKQ 291415
RWRAKQ

REGIONAL WEATHER ROUNDUP
NATIONAL WEATHER SERVICE WAKEFIELD VA
1000 AM EDT FRI APR 29 2016

Note: "fair" indicates few or no clouds below 12,000 feet with no
significant weather and/or obstructions to visibility. * = Denotes
station may not report precipitation (e.g., rain,snow,etc.),
thunder or fog.

VAZ042-051-052>054-056-291500-
NORTHERN VIRGINIA

CITY           SKY/WX    TMP DP  RH WIND       PRES   REMARKS
WASH NATIONAL  DRIZZLE   49  47  93 E8        30.07R FOG
DULLES         FOG       48  46  93 NE5       30.06R VSB 1
FORT BELVOIR   CLOUDY    49  47  90 CALM      30.06S FOG
QUANTICO       CLOUDY    51  48  89 SE8       30.07R
FREDERICKSBRG* CLOUDY    50  50 100 NE6       30.05S FOG
STAFFORD*      CLOUDY    49  48  95 NE5       30.09S FOG
WARRENTON      CLOUDY    50  45  83 NE5       30.05S HAZE
CULPEPER*      CLOUDY    50  49  95 E3        30.06S FOG
MANASSAS*      CLOUDY    48  48 100 CALM      30.06R FOG
LEESBURG*      CLOUDY    48  48 100 CALM      30.07S FOG
WINCHESTER     CLOUDY    48  46  93 E3        30.04S FOG
FRONT ROYAL*   CLOUDY    46  46 100 N3        30.04S
LURAY*         CLOUDY    50  50 100 NE3       30.03R FOG
$$

VAZ048-049-060>072-079>083-291500-
CENTRAL AND SOUTH CENTRAL VIRGINIA

CITY           SKY/WX    TMP DP  RH WIND       PRES   REMARKS
RICHMOND       DRIZZLE   51  50  96 NE8       30.04R FOG
CHESTERFIELD*  CLOUDY    54  39  58 NE6       30.05S
PETERSBURG*    CLOUDY    55  55 100 NE8       30.04S FOG
HANOVER        CLOUDY    51  48  89 E5        30.06S FOG
TAPPAHANNOCK*  CLOUDY    52  52 100 N7        30.06R FOG
QUINTON*       CLOUDY    52  51  98 N7        30.04R FOG
CHARLOTTSVILLE CLOUDY    52  49  89 NE6       30.03S FOG
GORDONSVILLE*  CLOUDY    49  49  99 NE5       30.04R FOG
ORANGE*        CLOUDY    50  50 100 CALM      30.06S FOG
LOUISA*        CLOUDY    54  54 100 E5        30.02F
BUMPASS*       CLOUDY    49  49  98 E3        30.04S
FARMVILLE*     CLOUDY    56  56 100 NE5       30.01F FOG
CREWE*         CLOUDY    53  53 100 NE3       30.02S
FORT PICKETT*  NOT AVBL
CHASE CITY*    CLOUDY    57  56  94 N3        30.01S
CLARKSVILLE*   CLOUDY    57  57 100 N3        30.01S
SOUTH HILL*    CLOUDY    54  54  99 NE3       30.07S
LAWRENCEVILLE* CLOUDY    54  54 100 CALM      30.02S
EMPORIA*       CLOUDY    54  52  94 N6        30.04S FOG
$$

VAZ088>098-291500-
SOUTHEAST VIRGINIA

CITY           SKY/WX    TMP DP  RH WIND       PRES   REMARKS
NORFOLK        CLOUDY    55  52  89 N12       30.01R FOG
VIRGINIA BEACH CLOUDY    58  53  84 N10       30.00R FOG
NORFOLK NAVAL  CLOUDY    56  54  93 NE9       30.03R FOG
WEST POINT*    CLOUDY    53  52  97 NE3       30.06R
SALUDA*        CLOUDY    52  52 100 CALM      30.03S
NEWPORT NEWS   CLOUDY    55  53  93 NE8       30.03R FOG
LANGLEY AFB    CLOUDY    55  54  98 NE9       30.02R
FORT EUSTIS    CLOUDY    55  55 100 VRB5      30.01R FOG
WILLIAMSBURG*  CLOUDY    55  55 100 NE3       30.04R
HR EXEC AP*    CLOUDY    57  54  88 NE6       30.03R
FRANKLIN*      CLOUDY    55  54  95 N6        30.03R FOG
US460-WAKEFLD  CLOUDY    56  53  90 VRB3      30.04R FOG
$$

VAZ020-022-025-037-045-291500-
WEST CENTRAL AND SOUTHWEST VIRGINIA

CITY           SKY/WX    TMP DP  RH WIND       PRES   REMARKS
STAUNTON*      FOG       53  53 100 NE3       30.03S VSB 1
WAYNESBORO*    CLOUDY    54  53  96 MISG      30.00F VSB 3/4
HOT SPRINGS VA FAIR      58  53  84 W12       30.02S
LYNCHBURG      CLOUDY    58  56  93 VRB3      30.01F
DANVILLE       CLOUDY    63  58  83 CALM      30.00F
SOUTH BOSTON*  CLOUDY    58  57  96 NW5       30.01S
MARTINSVILLE   FAIR      66  58  75 S6        30.03S
ROANOKE        FAIR      65  59  81 CALM      30.02F
BLACKSBURG     FAIR      65  52  62 NW10G16   30.06S
DUBLIN*        FAIR      67  51  56 W13G18    30.05S
MARION*        FAIR      66  48  53 W8G22     30.08F
HILLSVILLE*    FAIR      63  48  58 W12G18    30.04S
RICHLANDS*     FAIR      62  51  67 W7        30.08S
WISE*          FAIR      64  43  45 CALM      30.09F
ABINGDON*      FAIR      67  55  63 W3        30.07S
$$

MDZ021>025-VAZ099-100-291500-
SOUTHERN MARYLAND AND THE DELMARVA PENINSULA

CITY           SKY/WX    TMP DP  RH WIND       PRES   REMARKS
PATUXENT RIVER DRIZZLE   51  48  89 NE7       30.05R FOG
BAY BRIDGE APT NOT AVBL
LEONARDTOWN    CLOUDY    50  46  87 NE5       30.06S
DOVER          CLOUDY    49  49 100 NE7       30.05F
GEORGETOWN     CLOUDY    51  50  96 NE10      30.05S
EASTON         CLOUDY   N/A N/A N/A NE3       30.10R FOG
CAMBRIDGE      CLOUDY    50  48  93 CALM      30.04S
SALISBURY      CLOUDY    51  50  96 NE10      30.03R FOG
OCEAN CITY     CLOUDY    52  48  86 NE12      30.02F
WALLOPS ISLAND CLOUDY    53  51  93 NE10      30.02S FOG
ACCOMACK*      CLOUDY    52 -38   2 NE7       30.02R HAZE
$$

NCZ012>017-030>032-291500-
NORTH CENTRAL AND EASTERN NORTH CAROLINA

CITY           SKY/WX    TMP DP  RH WIND       PRES   REMARKS
ROANOKE RAPIDS CLOUDY    54  54 100 N7        30.02S
RALEIGH        PTSUNNY   64  61  88 VRB5      30.01S
ELIZABETH CITY CLOUDY    56  54  93 NE13      30.00S
AHOSKIE*       DRIZZLE   55  54  97 N6        30.02R
EDENTON*       CLOUDY    58  58 100 NE7       30.01R FOG
CURRITUCK*     CLOUDY    56  56 100 N9        30.01S
KILL DEVIL HLS CLOUDY    56  56 100 N7        29.99R FOG
MANTEO         NOT AVBL
CAPE HATTERAS  CLOUDY    61  60  97 N10G20    29.98R
TARBORO*       CLOUDY    58  57  94 N6        30.03R
GOLDSBORO      CLOUDY    61  61 100 VRB7      29.98R
WASHINGTON     CLOUDY    59  58  96 NE8       30.00R
GREENVILLE     CLOUDY    59  59 100 NE9       30.02R
NEW BERN       CLOUDY    63  61  93 NE10      29.99R FOG
WILMINGTON     PTSUNNY   73  65  75 N13       29.96R
$$

VAZ048-291500-
ELSEWHERE

CITY           SKY/WX    TMP DP  RH WIND       PRES   REMARKS
HARRISBURG PA  HVY RAIN  45  42  89 E7        30.08R FOG
BALTIMORE      DRIZZLE   48  46  93 E8        30.07R FOG
ANNAPOLIS      CLOUDY    49  47  93 MISG      30.07R FOG
ANDREWS AFB    DRIZZLE   48  47  96 NE9       30.05S FOG
PHILADELPHIA   CLOUDY    51  41  68 E12       30.08S
HENDERSON NC   CLOUDY    57  57 100 N5        30.00F
GREENSBORO     PTSUNNY   68  59  73 CALM      30.00F
ROCKY MOUNT    CLOUDY    59  58  96 N7        30.01R
$$

VAZ100-291500-
MARINE

STATION/POSITION TIME  TEMP    WIND        PRES    WAVE   SWELL
                       AIR SEA DIR/SP/G            HT/PER HT/PER
                 (UTC) (F)     (DEG/KT/KT) (MB)    (FT/S) (FT/S)
BRANDYWINE LGT   1300   51      70/ 15/ 19 1017.6R
CAPE MAY NJ      1300   51 57   60/  9/ 14 1017.2R
LEWES DE         1300   52 54   80/ 15/ 19 1017.2R
15NM E FENWICK I 1350   51 51              1016.1F   5/ 5
OCEAN-CITY-INLET 1300   51 53   60/  6/ 11 1016.2F
WACHAPREAGUE VA  1300   52 58   30/ 12/ 16 1015.8F
THOMAS POINT MD  1400   48 57   40/  7/  8 1019.5R
GOOSES REEF MD   1300   50 57   50/ 10/ 12 1018.2S   1/ 2
COVE POINT MD    1300   49      80/  8/ 13 1017.8R
SOLOMONS ISLAND  1300   51 59   40/  5/  8   N/A
BISHOPS HEAD MD  1300   51 57   50/ 12/ 15 1016.0R
PINEY POINT MD   1300           70/  3/  4   N/A
POTOMAC MD       1300   52 59   50/ 12/ 16 1016.0R   1
CAMBRIDGE MD     1300   51 60   60/  9/ 11 1016.5R
LEWISETTA VA     1300   52 60   70/  9/ 12 1016.7R
RAPPAHANNOCK LGT 1300           30/ 11/ 11 1016.8R
STINGRAY PT      1300   53 61   50/ 10/ 12 1016.9R   2/ 3
YORK RVR RNG VA  1300   54      50/ 12/ 14 1015.7R
YORKTOWN VA      1300   54 62   40/  9/ 12 1016.1R
JAMESTOWN VA     1300   53 66   30/  6/  8   N/A     0
DOMINION TERM VA 1300   55      50/  3/  6 1016.0R
KIPTOPEKE VA     1300      60   30/  9/ 12   N/A
CHES BAY BRIDGE  1300   53 60   10/ 11/ 13 1015.5S
CAPE HENRY VA    1300   53      20/ 16/ 17   N/A
CHESAPEAKE LGHT  1300   52      20/ 20/ 20 1016.0R
WILLOUBY STN VA  1300   54      40/ 12/ 13 1016.9R
CAPE HENRY BUOY  1312      55                N/A     5/ 6
CAPE CHARLES BUO 1356      56                N/A     5/ 6   2/11
OFFSHORE WE BUOY 1321      55                N/A     5/ 6   2/10
64NM E OF VA BCH 1350   54 54   10/  8/ 10 1014.7R   4/ 6   3/ 6
DUCK PIER NC     1300   54 66   10/ 14/ 18 1014.7R
44100 DUCK FRF   1324      58                N/A     4/ 6
44056 DUCK FRF   1311      58                N/A     5/ 5
OREGON INLET NC  1300   56 63  360/ 13/ 18 1014.8R
HATTERAS NC      1300   61 69  360/ 17/ 19 1014.0R
DIAMOND SHLS NC  1350   61 69  360/ 17/ 19 1014.2R   3/ 6   2/ 8
CAPE LOOKOUT NC  1300   66      10/  8/ 10 1013.6R
$$




USA.gov is the U.S. government's official web portal to all federal, state and local government web resources and services.